Year,Month,Day,Hour,Minute,Value (Times are PST for temperature in C)
2015,07,01,00,00,18.90
2015,07,01,00,01,18.90
2015,07,01,00,02,18.90
2015,07,01,00,03,18.90
2015,07,01,00,04,18.90
2015,07,01,00,05,18.90
2015,07,01,00,06,18.90
2015,07,01,00,07,18.90
2015,07,01,00,08,18.80
2015,07,01,00,09,18.80
2015,07,01,00,10,18.80
2015,07,01,00,11,18.80
2015,07,01,00,12,18.80
2015,07,01,00,13,18.80
2015,07,01,00,14,18.80
2015,07,01,00,15,18.80
2015,07,01,00,16,18.80
2015,07,01,00,17,18.80
2015,07,01,00,18,18.80
2015,07,01,00,19,18.80
2015,07,01,00,20,18.80
2015,07,01,00,21,18.80
2015,07,01,00,22,18.80
2015,07,01,00,23,18.80
2015,07,01,00,24,18.80
2015,07,01,00,25,18.80
2015,07,01,00,26,18.80
2015,07,01,00,27,18.90
2015,07,01,00,28,18.90
2015,07,01,00,29,18.90
2015,07,01,00,30,18.90
2015,07,01,00,31,19.00
2015,07,01,00,32,18.90
2015,07,01,00,33,18.90
2015,07,01,00,34,18.90
2015,07,01,00,35,18.90
2015,07,01,00,36,18.80
2015,07,01,00,37,18.80
2015,07,01,00,38,18.70
2015,07,01,00,39,18.70
2015,07,01,00,40,18.70
2015,07,01,00,41,18.70
2015,07,01,00,42,18.70
2015,07,01,00,43,18.60
2015,07,01,00,44,18.60
2015,07,01,00,45,18.50
2015,07,01,00,46,18.50
2015,07,01,00,47,18.40
2015,07,01,00,48,18.30
2015,07,01,00,49,18.30
2015,07,01,00,50,18.30
2015,07,01,00,51,18.20
2015,07,01,00,52,18.20
2015,07,01,00,53,18.20
2015,07,01,00,54,18.20
2015,07,01,00,55,18.20
2015,07,01,00,56,18.10
2015,07,01,00,57,18.10
2015,07,01,00,58,18.10
2015,07,01,00,59,18.10
2015,07,01,01,00,18.00
2015,07,01,01,01,18.00
2015,07,01,01,02,17.90
2015,07,01,01,03,17.90
2015,07,01,01,04,17.90
2015,07,01,01,05,17.80
2015,07,01,01,06,17.80
2015,07,01,01,07,17.80
2015,07,01,01,08,17.80
2015,07,01,01,09,17.80
2015,07,01,01,10,17.80
2015,07,01,01,11,17.70
2015,07,01,01,12,17.70
2015,07,01,01,13,17.70
2015,07,01,01,14,17.70
2015,07,01,01,15,17.60
2015,07,01,01,16,17.60
2015,07,01,01,17,17.60
2015,07,01,01,18,17.60
2015,07,01,01,19,17.60
2015,07,01,01,20,17.60
2015,07,01,01,21,17.60
2015,07,01,01,22,17.60
2015,07,01,01,23,17.50
2015,07,01,01,24,17.50
2015,07,01,01,25,17.50
2015,07,01,01,26,17.50
2015,07,01,01,27,17.50
2015,07,01,01,28,17.50
2015,07,01,01,29,17.50
2015,07,01,01,30,17.50
2015,07,01,01,31,17.40
2015,07,01,01,32,17.40
2015,07,01,01,33,17.40
2015,07,01,01,34,17.40
2015,07,01,01,35,17.40
2015,07,01,01,36,17.40
2015,07,01,01,37,17.40
2015,07,01,01,38,17.40
2015,07,01,01,39,17.30
2015,07,01,01,40,17.30
2015,07,01,01,41,17.30
2015,07,01,01,42,17.30
2015,07,01,01,43,17.30
2015,07,01,01,44,17.20
2015,07,01,01,45,17.20
2015,07,01,01,46,17.20
2015,07,01,01,47,17.20
2015,07,01,01,48,17.20
2015,07,01,01,49,17.10
2015,07,01,01,50,17.10
2015,07,01,01,51,17.10
2015,07,01,01,52,17.10
2015,07,01,01,53,17.00
2015,07,01,01,54,17.00
2015,07,01,01,55,17.00
2015,07,01,01,56,17.00
2015,07,01,01,57,17.00
2015,07,01,01,58,17.00
2015,07,01,01,59,16.90
2015,07,01,02,00,16.90
2015,07,01,02,01,16.90
2015,07,01,02,02,16.90
2015,07,01,02,03,16.90
2015,07,01,02,04,16.90
2015,07,01,02,05,16.90
2015,07,01,02,06,16.90
2015,07,01,02,07,16.90
2015,07,01,02,08,16.90
2015,07,01,02,09,16.90
2015,07,01,02,10,16.90
2015,07,01,02,11,16.90
2015,07,01,02,12,16.90
2015,07,01,02,13,16.90
2015,07,01,02,14,17.00
2015,07,01,02,15,17.00
2015,07,01,02,16,16.90
2015,07,01,02,17,16.90
2015,07,01,02,18,16.90
2015,07,01,02,19,16.90
2015,07,01,02,20,16.90
2015,07,01,02,21,16.90
2015,07,01,02,22,16.90
2015,07,01,02,23,16.80
2015,07,01,02,24,16.80
2015,07,01,02,25,16.80
2015,07,01,02,26,16.80
2015,07,01,02,27,16.80
2015,07,01,02,28,16.80
2015,07,01,02,29,16.80
2015,07,01,02,30,16.80
2015,07,01,02,31,16.80
2015,07,01,02,32,16.80
2015,07,01,02,33,16.80
2015,07,01,02,34,16.80
2015,07,01,02,35,16.80
2015,07,01,02,36,16.70
2015,07,01,02,37,16.70
2015,07,01,02,38,16.70
2015,07,01,02,39,16.70
2015,07,01,02,40,16.70
2015,07,01,02,41,16.70
2015,07,01,02,42,16.70
2015,07,01,02,43,16.70
2015,07,01,02,44,16.70
2015,07,01,02,45,16.70
2015,07,01,02,46,16.70
2015,07,01,02,47,16.60
2015,07,01,02,48,16.50
2015,07,01,02,49,16.40
2015,07,01,02,50,16.30
2015,07,01,02,51,16.30
2015,07,01,02,52,16.20
2015,07,01,02,53,16.20
2015,07,01,02,54,16.10
2015,07,01,02,55,16.10
2015,07,01,02,56,16.10
2015,07,01,02,57,16.00
2015,07,01,02,58,16.00
2015,07,01,02,59,16.00
2015,07,01,03,00,15.90
2015,07,01,03,01,15.90
2015,07,01,03,02,16.00
2015,07,01,03,03,16.00
2015,07,01,03,04,16.10
2015,07,01,03,05,16.10
2015,07,01,03,06,16.20
2015,07,01,03,07,16.30
2015,07,01,03,08,16.40
2015,07,01,03,09,16.50
2015,07,01,03,10,16.60
2015,07,01,03,11,16.70
2015,07,01,03,12,16.80
2015,07,01,03,13,16.90
2015,07,01,03,14,17.00
2015,07,01,03,15,17.10
2015,07,01,03,16,17.20
2015,07,01,03,17,17.30
2015,07,01,03,18,17.30
2015,07,01,03,19,17.30
2015,07,01,03,20,17.20
2015,07,01,03,21,17.10
2015,07,01,03,22,17.00
2015,07,01,03,23,16.90
2015,07,01,03,24,16.80
2015,07,01,03,25,16.70
2015,07,01,03,26,16.60
2015,07,01,03,27,16.50
2015,07,01,03,28,16.50
2015,07,01,03,29,16.40
2015,07,01,03,30,16.30
2015,07,01,03,31,16.20
2015,07,01,03,32,16.10
2015,07,01,03,33,16.10
2015,07,01,03,34,16.00
2015,07,01,03,35,16.00
2015,07,01,03,36,15.90
2015,07,01,03,37,15.80
2015,07,01,03,38,15.70
2015,07,01,03,39,15.70
2015,07,01,03,40,15.60
2015,07,01,03,41,15.50
2015,07,01,03,42,15.50
2015,07,01,03,43,15.40
2015,07,01,03,44,15.30
2015,07,01,03,45,15.20
2015,07,01,03,46,15.20
2015,07,01,03,47,15.10
2015,07,01,03,48,15.00
2015,07,01,03,49,14.90
2015,07,01,03,50,14.80
2015,07,01,03,51,14.70
2015,07,01,03,52,14.70
2015,07,01,03,53,14.60
2015,07,01,03,54,14.50
2015,07,01,03,55,14.40
2015,07,01,03,56,14.40
2015,07,01,03,57,14.30
2015,07,01,03,58,14.30
2015,07,01,03,59,14.20
2015,07,01,04,00,14.20
2015,07,01,04,01,14.20
2015,07,01,04,02,14.20
2015,07,01,04,03,14.20
2015,07,01,04,04,14.10
2015,07,01,04,05,14.10
2015,07,01,04,06,14.10
2015,07,01,04,07,14.10
2015,07,01,04,08,14.10
2015,07,01,04,09,14.10
2015,07,01,04,10,14.10
2015,07,01,04,11,14.00
2015,07,01,04,12,14.00
2015,07,01,04,13,14.00
2015,07,01,04,14,13.90
2015,07,01,04,15,13.90
2015,07,01,04,16,13.90
2015,07,01,04,17,13.80
2015,07,01,04,18,13.80
2015,07,01,04,19,13.80
2015,07,01,04,20,13.80
2015,07,01,04,21,13.80
2015,07,01,04,22,13.70
2015,07,01,04,23,13.70
2015,07,01,04,24,13.70
2015,07,01,04,25,13.70
2015,07,01,04,26,13.70
2015,07,01,04,27,13.70
2015,07,01,04,28,13.70
2015,07,01,04,29,13.70
2015,07,01,04,30,13.70
2015,07,01,04,31,13.70
2015,07,01,04,32,13.70
2015,07,01,04,33,13.70
2015,07,01,04,34,13.70
2015,07,01,04,35,13.70
2015,07,01,04,36,13.70
2015,07,01,04,37,13.70
2015,07,01,04,38,13.70
2015,07,01,04,39,13.70
2015,07,01,04,40,13.70
2015,07,01,04,41,13.70
2015,07,01,04,42,13.70
2015,07,01,04,43,13.70
2015,07,01,04,44,13.70
2015,07,01,04,45,13.70
2015,07,01,04,46,13.70
2015,07,01,04,47,13.70
2015,07,01,04,48,13.70
2015,07,01,04,49,13.70
2015,07,01,04,50,13.70
2015,07,01,04,51,13.70
2015,07,01,04,52,13.80
2015,07,01,04,53,13.80
2015,07,01,04,54,13.80
2015,07,01,04,55,13.80
2015,07,01,04,56,13.80
2015,07,01,04,57,13.80
2015,07,01,04,58,13.80
2015,07,01,04,59,13.80
2015,07,01,05,00,13.80
2015,07,01,05,01,13.80
2015,07,01,05,02,13.80
2015,07,01,05,03,13.80
2015,07,01,05,04,13.80
2015,07,01,05,05,13.80
2015,07,01,05,06,13.80
2015,07,01,05,07,13.80
2015,07,01,05,08,13.80
2015,07,01,05,09,13.80
2015,07,01,05,10,13.80
2015,07,01,05,11,13.80
2015,07,01,05,12,13.80
2015,07,01,05,13,13.80
2015,07,01,05,14,13.80
2015,07,01,05,15,13.80
2015,07,01,05,16,13.80
2015,07,01,05,17,13.80
2015,07,01,05,18,13.80
2015,07,01,05,19,13.80
2015,07,01,05,20,13.80
2015,07,01,05,21,13.70
2015,07,01,05,22,13.70
2015,07,01,05,23,13.70
2015,07,01,05,24,13.70
2015,07,01,05,25,13.70
2015,07,01,05,26,13.70
2015,07,01,05,27,13.70
2015,07,01,05,28,13.70
2015,07,01,05,29,13.70
2015,07,01,05,30,13.70
2015,07,01,05,31,13.70
2015,07,01,05,32,13.70
2015,07,01,05,33,13.70
2015,07,01,05,34,13.60
2015,07,01,05,35,13.60
2015,07,01,05,36,13.60
2015,07,01,05,37,13.60
2015,07,01,05,38,13.60
2015,07,01,05,39,13.60
2015,07,01,05,40,13.60
2015,07,01,05,41,13.60
2015,07,01,05,42,13.70
2015,07,01,05,43,13.70
2015,07,01,05,44,13.70
2015,07,01,05,45,13.70
2015,07,01,05,46,13.80
2015,07,01,05,47,13.80
2015,07,01,05,48,13.90
2015,07,01,05,49,13.90
2015,07,01,05,50,14.00
2015,07,01,05,51,14.00
2015,07,01,05,52,14.10
2015,07,01,05,53,14.10
2015,07,01,05,54,14.20
2015,07,01,05,55,14.20
2015,07,01,05,56,14.20
2015,07,01,05,57,14.30
2015,07,01,05,58,14.30
2015,07,01,05,59,14.40
2015,07,01,06,00,14.40
2015,07,01,06,01,14.60
2015,07,01,06,02,14.70
2015,07,01,06,03,14.80
2015,07,01,06,04,14.90
2015,07,01,06,05,15.00
2015,07,01,06,06,15.10
2015,07,01,06,07,15.10
2015,07,01,06,08,15.20
2015,07,01,06,09,15.30
2015,07,01,06,10,15.30
2015,07,01,06,11,15.40
2015,07,01,06,12,15.50
2015,07,01,06,13,15.60
2015,07,01,06,14,15.60
2015,07,01,06,15,15.70
2015,07,01,06,16,15.80
2015,07,01,06,17,15.90
2015,07,01,06,18,16.00
2015,07,01,06,19,16.10
2015,07,01,06,20,16.20
2015,07,01,06,21,16.30
2015,07,01,06,22,16.40
2015,07,01,06,23,16.40
2015,07,01,06,24,16.40
2015,07,01,06,25,16.50
2015,07,01,06,26,16.50
2015,07,01,06,27,16.50
2015,07,01,06,28,16.60
2015,07,01,06,29,16.60
2015,07,01,06,30,16.60
2015,07,01,06,31,16.60
2015,07,01,06,32,16.60
2015,07,01,06,33,16.60
2015,07,01,06,34,16.50
2015,07,01,06,35,16.50
2015,07,01,06,36,16.50
2015,07,01,06,37,16.50
2015,07,01,06,38,16.60
2015,07,01,06,39,16.60
2015,07,01,06,40,16.60
2015,07,01,06,41,16.60
2015,07,01,06,42,16.60
2015,07,01,06,43,16.60
2015,07,01,06,44,16.70
2015,07,01,06,45,16.60
2015,07,01,06,46,16.60
2015,07,01,06,47,16.60
2015,07,01,06,48,16.60
2015,07,01,06,49,16.60
2015,07,01,06,50,16.60
2015,07,01,06,51,16.60
2015,07,01,06,52,16.70
2015,07,01,06,53,16.70
2015,07,01,06,54,16.70
2015,07,01,06,55,16.70
2015,07,01,06,56,16.80
2015,07,01,06,57,16.80
2015,07,01,06,58,16.80
2015,07,01,06,59,16.80
2015,07,01,07,00,16.80
2015,07,01,07,01,16.90
2015,07,01,07,02,16.90
2015,07,01,07,03,17.00
2015,07,01,07,04,17.00
2015,07,01,07,05,17.00
2015,07,01,07,06,17.10
2015,07,01,07,07,17.10
2015,07,01,07,08,17.20
2015,07,01,07,09,17.30
2015,07,01,07,10,17.30
2015,07,01,07,11,17.40
2015,07,01,07,12,17.40
2015,07,01,07,13,17.50
2015,07,01,07,14,17.50
2015,07,01,07,15,17.60
2015,07,01,07,16,17.60
2015,07,01,07,17,17.70
2015,07,01,07,18,17.70
2015,07,01,07,19,17.70
2015,07,01,07,20,17.70
2015,07,01,07,21,17.60
2015,07,01,07,22,17.60
2015,07,01,07,23,17.60
2015,07,01,07,24,17.60
2015,07,01,07,25,17.70
2015,07,01,07,26,17.70
2015,07,01,07,27,17.80
2015,07,01,07,28,17.80
2015,07,01,07,29,17.90
2015,07,01,07,30,17.90
2015,07,01,07,31,17.90
2015,07,01,07,32,17.90
2015,07,01,07,33,17.90
2015,07,01,07,34,17.90
2015,07,01,07,35,17.90
2015,07,01,07,36,17.90
2015,07,01,07,37,17.90
2015,07,01,07,38,17.90
2015,07,01,07,39,17.90
2015,07,01,07,40,17.90
2015,07,01,07,41,17.90
2015,07,01,07,42,17.90
2015,07,01,07,43,18.00
2015,07,01,07,44,18.00
2015,07,01,07,45,18.10
2015,07,01,07,46,18.10
2015,07,01,07,47,18.20
2015,07,01,07,48,18.20
2015,07,01,07,49,18.20
2015,07,01,07,50,18.20
2015,07,01,07,51,18.20
2015,07,01,07,52,18.20
2015,07,01,07,53,18.20
2015,07,01,07,54,18.10
2015,07,01,07,55,18.10
2015,07,01,07,56,18.00
2015,07,01,07,57,18.00
2015,07,01,07,58,18.00
2015,07,01,07,59,18.00
2015,07,01,08,00,17.90
2015,07,01,08,01,17.90
2015,07,01,08,02,17.90
2015,07,01,08,03,17.80
2015,07,01,08,04,17.80
2015,07,01,08,05,17.80
2015,07,01,08,06,17.80
2015,07,01,08,07,17.80
2015,07,01,08,08,17.80
2015,07,01,08,09,17.80
2015,07,01,08,10,17.90
2015,07,01,08,11,17.90
2015,07,01,08,12,17.90
2015,07,01,08,13,17.90
2015,07,01,08,14,18.00
2015,07,01,08,15,18.00
2015,07,01,08,16,17.90
2015,07,01,08,17,17.90
2015,07,01,08,18,17.90
2015,07,01,08,19,17.90
2015,07,01,08,20,17.90
2015,07,01,08,21,17.90
2015,07,01,08,22,17.90
2015,07,01,08,23,17.80
2015,07,01,08,24,17.80
2015,07,01,08,25,17.80
2015,07,01,08,26,17.80
2015,07,01,08,27,17.90
2015,07,01,08,28,17.90
2015,07,01,08,29,17.90
2015,07,01,08,30,18.00
2015,07,01,08,31,18.10
2015,07,01,08,32,18.20
2015,07,01,08,33,18.20
2015,07,01,08,34,18.30
2015,07,01,08,35,18.40
2015,07,01,08,36,18.40
2015,07,01,08,37,18.50
2015,07,01,08,38,18.60
2015,07,01,08,39,18.60
2015,07,01,08,40,18.60
2015,07,01,08,41,18.70
2015,07,01,08,42,18.70
2015,07,01,08,43,18.80
2015,07,01,08,44,18.80
2015,07,01,08,45,18.90
2015,07,01,08,46,18.90
2015,07,01,08,47,19.00
2015,07,01,08,48,19.10
2015,07,01,08,49,19.10
2015,07,01,08,50,19.10
2015,07,01,08,51,19.20
2015,07,01,08,52,19.20
2015,07,01,08,53,19.30
2015,07,01,08,54,19.30
2015,07,01,08,55,19.30
2015,07,01,08,56,19.40
2015,07,01,08,57,19.40
2015,07,01,08,58,19.50
2015,07,01,08,59,19.60
2015,07,01,09,00,19.60
2015,07,01,09,01,19.60
2015,07,01,09,02,19.70
2015,07,01,09,03,19.70
2015,07,01,09,04,19.70
2015,07,01,09,05,19.70
2015,07,01,09,06,19.70
2015,07,01,09,07,19.80
2015,07,01,09,08,19.80
2015,07,01,09,09,19.80
2015,07,01,09,10,19.80
2015,07,01,09,11,19.80
2015,07,01,09,12,19.80
2015,07,01,09,13,19.80
2015,07,01,09,14,19.90
2015,07,01,09,15,19.90
2015,07,01,09,16,19.90
2015,07,01,09,17,19.90
2015,07,01,09,18,20.00
2015,07,01,09,19,20.00
2015,07,01,09,20,20.10
2015,07,01,09,21,20.10
2015,07,01,09,22,20.20
2015,07,01,09,23,20.20
2015,07,01,09,24,20.20
2015,07,01,09,25,20.30
2015,07,01,09,26,20.30
2015,07,01,09,27,20.20
2015,07,01,09,28,20.20
2015,07,01,09,29,20.20
2015,07,01,09,30,20.30
2015,07,01,09,31,20.30
2015,07,01,09,32,20.30
2015,07,01,09,33,20.30
2015,07,01,09,34,20.30
2015,07,01,09,35,20.40
2015,07,01,09,36,20.40
2015,07,01,09,37,20.40
2015,07,01,09,38,20.50
2015,07,01,09,39,20.50
2015,07,01,09,40,20.60
2015,07,01,09,41,20.60
2015,07,01,09,42,20.60
2015,07,01,09,43,20.50
2015,07,01,09,44,20.60
2015,07,01,09,45,20.60
2015,07,01,09,46,20.70
2015,07,01,09,47,20.70
2015,07,01,09,48,20.70
2015,07,01,09,49,20.70
2015,07,01,09,50,20.80
2015,07,01,09,51,20.80
2015,07,01,09,52,20.80
2015,07,01,09,53,20.90
2015,07,01,09,54,20.90
2015,07,01,09,55,20.90
2015,07,01,09,56,20.90
2015,07,01,09,57,20.90
2015,07,01,09,58,20.90
2015,07,01,09,59,20.90
2015,07,01,10,00,20.90
2015,07,01,10,01,20.90
2015,07,01,10,02,20.90
2015,07,01,10,03,20.90
2015,07,01,10,04,20.90
2015,07,01,10,05,20.90
2015,07,01,10,06,20.90
2015,07,01,10,07,20.90
2015,07,01,10,08,20.90
2015,07,01,10,09,21.00
2015,07,01,10,10,21.10
2015,07,01,10,11,21.10
2015,07,01,10,12,21.10
2015,07,01,10,13,21.10
2015,07,01,10,14,21.10
2015,07,01,10,15,21.20
2015,07,01,10,16,21.20
2015,07,01,10,17,21.20
2015,07,01,10,18,21.20
2015,07,01,10,19,21.10
2015,07,01,10,20,21.10
2015,07,01,10,21,21.10
2015,07,01,10,22,21.20
2015,07,01,10,23,21.20
2015,07,01,10,24,21.30
2015,07,01,10,25,21.30
2015,07,01,10,26,21.40
2015,07,01,10,27,21.40
2015,07,01,10,28,21.40
2015,07,01,10,29,21.30
2015,07,01,10,30,21.30
2015,07,01,10,31,21.30
2015,07,01,10,32,21.30
2015,07,01,10,33,21.40
2015,07,01,10,34,21.40
2015,07,01,10,35,21.50
2015,07,01,10,36,21.60
2015,07,01,10,37,21.70
2015,07,01,10,38,21.80
2015,07,01,10,39,21.90
2015,07,01,10,40,22.00
2015,07,01,10,41,22.20
2015,07,01,10,42,22.30
2015,07,01,10,43,22.40
2015,07,01,10,44,22.50
2015,07,01,10,45,22.60
2015,07,01,10,46,22.60
2015,07,01,10,47,22.60
2015,07,01,10,48,22.60
2015,07,01,10,49,22.40
2015,07,01,10,50,22.30
2015,07,01,10,51,22.10
2015,07,01,10,52,22.00
2015,07,01,10,53,21.90
2015,07,01,10,54,21.80
2015,07,01,10,55,21.70
2015,07,01,10,56,21.70
2015,07,01,10,57,21.70
2015,07,01,10,58,21.80
2015,07,01,10,59,21.80
2015,07,01,11,00,21.80
2015,07,01,11,01,21.80
2015,07,01,11,02,21.90
2015,07,01,11,03,22.00
2015,07,01,11,04,22.00
2015,07,01,11,05,22.10
2015,07,01,11,06,22.10
2015,07,01,11,07,22.10
2015,07,01,11,08,22.20
2015,07,01,11,09,22.20
2015,07,01,11,10,22.30
2015,07,01,11,11,22.30
2015,07,01,11,12,22.40
2015,07,01,11,13,22.50
2015,07,01,11,14,22.60
2015,07,01,11,15,22.70
2015,07,01,11,16,22.60
2015,07,01,11,17,22.60
2015,07,01,11,18,22.50
2015,07,01,11,19,22.60
2015,07,01,11,20,22.60
2015,07,01,11,21,22.60
2015,07,01,11,22,22.60
2015,07,01,11,23,22.60
2015,07,01,11,24,22.70
2015,07,01,11,25,22.70
2015,07,01,11,26,22.70
2015,07,01,11,27,22.70
2015,07,01,11,28,22.70
2015,07,01,11,29,22.70
2015,07,01,11,30,22.70
2015,07,01,11,31,22.80
2015,07,01,11,32,22.80
2015,07,01,11,33,22.70
2015,07,01,11,34,22.70
2015,07,01,11,35,22.80
2015,07,01,11,36,22.80
2015,07,01,11,37,22.90
2015,07,01,11,38,22.90
2015,07,01,11,39,22.80
2015,07,01,11,40,22.80
2015,07,01,11,41,22.90
2015,07,01,11,42,22.80
2015,07,01,11,43,22.80
2015,07,01,11,44,22.80
2015,07,01,11,45,22.80
2015,07,01,11,46,22.80
2015,07,01,11,47,22.80
2015,07,01,11,48,22.70
2015,07,01,11,49,22.70
2015,07,01,11,50,22.60
2015,07,01,11,51,22.60
2015,07,01,11,52,22.60
2015,07,01,11,53,22.60
2015,07,01,11,54,22.60
2015,07,01,11,55,22.60
2015,07,01,11,56,22.60
2015,07,01,11,57,22.70
2015,07,01,11,58,22.80
2015,07,01,11,59,22.90
2015,07,01,12,00,22.90
2015,07,01,12,01,22.90
2015,07,01,12,02,22.90
2015,07,01,12,03,22.90
2015,07,01,12,04,22.90
2015,07,01,12,05,22.90
2015,07,01,12,06,22.90
2015,07,01,12,07,22.90
2015,07,01,12,08,22.90
2015,07,01,12,09,22.90
2015,07,01,12,10,22.90
2015,07,01,12,11,22.80
2015,07,01,12,12,22.80
2015,07,01,12,13,22.90
2015,07,01,12,14,22.90
2015,07,01,12,15,23.00
2015,07,01,12,16,23.10
2015,07,01,12,17,23.10
2015,07,01,12,18,23.20
2015,07,01,12,19,23.30
2015,07,01,12,20,23.40
2015,07,01,12,21,23.50
2015,07,01,12,22,23.60
2015,07,01,12,23,23.70
2015,07,01,12,24,23.80
2015,07,01,12,25,23.80
2015,07,01,12,26,23.80
2015,07,01,12,27,23.80
2015,07,01,12,28,23.70
2015,07,01,12,29,23.70
2015,07,01,12,30,23.70
2015,07,01,12,31,23.80
2015,07,01,12,32,23.80
2015,07,01,12,33,23.80
2015,07,01,12,34,23.80
2015,07,01,12,35,23.80
2015,07,01,12,36,23.80
2015,07,01,12,37,23.80
2015,07,01,12,38,23.80
2015,07,01,12,39,23.90
2015,07,01,12,40,23.90
2015,07,01,12,41,23.90
2015,07,01,12,42,23.90
2015,07,01,12,43,23.90
2015,07,01,12,44,23.90
2015,07,01,12,45,23.90
2015,07,01,12,46,23.90
2015,07,01,12,47,24.00
2015,07,01,12,48,24.00
2015,07,01,12,49,24.10
2015,07,01,12,50,24.10
2015,07,01,12,51,24.20
2015,07,01,12,52,24.20
2015,07,01,12,53,24.20
2015,07,01,12,54,24.20
2015,07,01,12,55,24.20
2015,07,01,12,56,24.20
2015,07,01,12,57,24.20
2015,07,01,12,58,24.20
2015,07,01,12,59,24.30
2015,07,01,13,00,24.40
2015,07,01,13,01,24.40
2015,07,01,13,02,24.30
2015,07,01,13,03,24.30
2015,07,01,13,04,24.20
2015,07,01,13,05,24.20
2015,07,01,13,06,24.20
2015,07,01,13,07,24.20
2015,07,01,13,08,24.20
2015,07,01,13,09,24.20
2015,07,01,13,10,24.10
2015,07,01,13,11,24.10
2015,07,01,13,12,24.10
2015,07,01,13,13,24.10
2015,07,01,13,14,24.10
2015,07,01,13,15,24.10
2015,07,01,13,16,24.20
2015,07,01,13,17,24.20
2015,07,01,13,18,24.30
2015,07,01,13,19,24.40
2015,07,01,13,20,24.50
2015,07,01,13,21,24.60
2015,07,01,13,22,24.70
2015,07,01,13,23,24.80
2015,07,01,13,24,24.80
2015,07,01,13,25,24.80
2015,07,01,13,26,24.80
2015,07,01,13,27,24.70
2015,07,01,13,28,24.70
2015,07,01,13,29,24.70
2015,07,01,13,30,24.60
2015,07,01,13,31,24.40
2015,07,01,13,32,24.30
2015,07,01,13,33,24.30
2015,07,01,13,34,24.20
2015,07,01,13,35,24.10
2015,07,01,13,36,24.10
2015,07,01,13,37,24.10
2015,07,01,13,38,24.10
2015,07,01,13,39,24.10
2015,07,01,13,40,24.00
2015,07,01,13,41,24.00
2015,07,01,13,42,24.00
2015,07,01,13,43,23.90
2015,07,01,13,44,24.00
2015,07,01,13,45,24.00
2015,07,01,13,46,24.10
2015,07,01,13,47,24.10
2015,07,01,13,48,24.20
2015,07,01,13,49,24.30
2015,07,01,13,50,24.30
2015,07,01,13,51,24.30
2015,07,01,13,52,24.40
2015,07,01,13,53,24.40
2015,07,01,13,54,24.40
2015,07,01,13,55,24.40
2015,07,01,13,56,24.40
2015,07,01,13,57,24.40
2015,07,01,13,58,24.40
2015,07,01,13,59,24.40
2015,07,01,14,00,24.30
2015,07,01,14,01,24.30
2015,07,01,14,02,24.30
2015,07,01,14,03,24.40
2015,07,01,14,04,24.40
2015,07,01,14,05,24.40
2015,07,01,14,06,24.40
2015,07,01,14,07,24.40
2015,07,01,14,08,24.40
2015,07,01,14,09,24.50
2015,07,01,14,10,24.60
2015,07,01,14,11,24.60
2015,07,01,14,12,24.70
2015,07,01,14,13,24.70
2015,07,01,14,14,24.70
2015,07,01,14,15,24.70
2015,07,01,14,16,24.70
2015,07,01,14,17,24.60
2015,07,01,14,18,24.60
2015,07,01,14,19,24.60
2015,07,01,14,20,24.70
2015,07,01,14,21,24.60
2015,07,01,14,22,24.60
2015,07,01,14,23,24.60
2015,07,01,14,24,24.60
2015,07,01,14,25,24.70
2015,07,01,14,26,24.70
2015,07,01,14,27,24.70
2015,07,01,14,28,24.70
2015,07,01,14,29,24.70
2015,07,01,14,30,24.70
2015,07,01,14,31,24.70
2015,07,01,14,32,24.80
2015,07,01,14,33,24.80
2015,07,01,14,34,24.80
2015,07,01,14,35,24.80
2015,07,01,14,36,24.80
2015,07,01,14,37,24.90
2015,07,01,14,38,24.90
2015,07,01,14,39,24.90
2015,07,01,14,40,25.00
2015,07,01,14,41,25.00
2015,07,01,14,42,25.10
2015,07,01,14,43,25.10
2015,07,01,14,44,25.10
2015,07,01,14,45,25.10
2015,07,01,14,46,25.10
2015,07,01,14,47,25.10
2015,07,01,14,48,25.10
2015,07,01,14,49,25.10
2015,07,01,14,50,25.10
2015,07,01,14,51,25.10
2015,07,01,14,52,25.20
2015,07,01,14,53,25.20
2015,07,01,14,54,25.30
2015,07,01,14,55,25.30
2015,07,01,14,56,25.40
2015,07,01,14,57,25.40
2015,07,01,14,58,25.40
2015,07,01,14,59,25.30
2015,07,01,15,00,25.30
2015,07,01,15,01,25.30
2015,07,01,15,02,25.40
2015,07,01,15,03,25.40
2015,07,01,15,04,25.40
2015,07,01,15,05,25.40
2015,07,01,15,06,25.40
2015,07,01,15,07,25.50
2015,07,01,15,08,25.50
2015,07,01,15,09,25.60
2015,07,01,15,10,25.60
2015,07,01,15,11,25.60
2015,07,01,15,12,25.70
2015,07,01,15,13,25.70
2015,07,01,15,14,25.80
2015,07,01,15,15,25.80
2015,07,01,15,16,25.80
2015,07,01,15,17,25.80
2015,07,01,15,18,25.80
2015,07,01,15,19,25.90
2015,07,01,15,20,25.90
2015,07,01,15,21,26.00
2015,07,01,15,22,26.10
2015,07,01,15,23,26.10
2015,07,01,15,24,26.20
2015,07,01,15,25,26.20
2015,07,01,15,26,26.20
2015,07,01,15,27,26.20
2015,07,01,15,28,26.20
2015,07,01,15,29,26.10
2015,07,01,15,30,26.10
2015,07,01,15,31,26.10
2015,07,01,15,32,26.20
2015,07,01,15,33,26.20
2015,07,01,15,34,26.30
2015,07,01,15,35,26.20
2015,07,01,15,36,26.20
2015,07,01,15,37,26.20
2015,07,01,15,38,26.20
2015,07,01,15,39,26.10
2015,07,01,15,40,26.10
2015,07,01,15,41,26.10
2015,07,01,15,42,26.10
2015,07,01,15,43,26.20
2015,07,01,15,44,26.20
2015,07,01,15,45,26.30
2015,07,01,15,46,26.50
2015,07,01,15,47,26.50
2015,07,01,15,48,26.60
2015,07,01,15,49,26.60
2015,07,01,15,50,26.70
2015,07,01,15,51,26.70
2015,07,01,15,52,26.70
2015,07,01,15,53,26.70
2015,07,01,15,54,26.70
2015,07,01,15,55,26.80
2015,07,01,15,56,26.80
2015,07,01,15,57,26.90
2015,07,01,15,58,27.00
2015,07,01,15,59,27.10
2015,07,01,16,00,27.20
2015,07,01,16,01,27.30
2015,07,01,16,02,27.30
2015,07,01,16,03,27.30
2015,07,01,16,04,27.40
2015,07,01,16,05,27.40
2015,07,01,16,06,27.40
2015,07,01,16,07,27.40
2015,07,01,16,08,27.40
2015,07,01,16,09,27.40
2015,07,01,16,10,27.40
2015,07,01,16,11,27.40
2015,07,01,16,12,27.30
2015,07,01,16,13,27.30
2015,07,01,16,14,27.30
2015,07,01,16,15,27.40
2015,07,01,16,16,27.40
2015,07,01,16,17,27.40
2015,07,01,16,18,27.40
2015,07,01,16,19,27.50
2015,07,01,16,20,27.50
2015,07,01,16,21,27.60
2015,07,01,16,22,27.60
2015,07,01,16,23,27.50
2015,07,01,16,24,27.50
2015,07,01,16,25,27.50
2015,07,01,16,26,27.50
2015,07,01,16,27,27.50
2015,07,01,16,28,27.60
2015,07,01,16,29,27.60
2015,07,01,16,30,27.70
2015,07,01,16,31,27.70
2015,07,01,16,32,27.80
2015,07,01,16,33,27.80
2015,07,01,16,34,27.80
2015,07,01,16,35,27.80
2015,07,01,16,36,27.80
2015,07,01,16,37,27.90
2015,07,01,16,38,27.90
2015,07,01,16,39,27.90
2015,07,01,16,40,28.00
2015,07,01,16,41,28.10
2015,07,01,16,42,28.20
2015,07,01,16,43,28.20
2015,07,01,16,44,28.30
2015,07,01,16,45,28.30
2015,07,01,16,46,28.30
2015,07,01,16,47,28.20
2015,07,01,16,48,28.20
2015,07,01,16,49,28.20
2015,07,01,16,50,28.20
2015,07,01,16,51,28.30
2015,07,01,16,52,28.40
2015,07,01,16,53,28.40
2015,07,01,16,54,28.40
2015,07,01,16,55,28.40
2015,07,01,16,56,28.40
2015,07,01,16,57,28.50
2015,07,01,16,58,28.50
2015,07,01,16,59,28.40
2015,07,01,17,00,28.40
2015,07,01,17,01,28.40
2015,07,01,17,02,28.40
2015,07,01,17,03,28.50
2015,07,01,17,04,28.50
2015,07,01,17,05,28.60
2015,07,01,17,06,28.60
2015,07,01,17,07,28.60
2015,07,01,17,08,28.60
2015,07,01,17,09,28.60
2015,07,01,17,10,28.50
2015,07,01,17,11,28.50
2015,07,01,17,12,28.40
2015,07,01,17,13,28.40
2015,07,01,17,14,28.40
2015,07,01,17,15,28.50
2015,07,01,17,16,28.50
2015,07,01,17,17,28.50
2015,07,01,17,18,28.40
2015,07,01,17,19,28.30